Data;Precipitacao;TempMinima
01/01/2000;16.8;19.7
02/01/2000;49.8;17.6
03/01/2000;14.8;17.3
04/01/2000;60.8;18
05/01/2000;6.3;19.6
06/01/2000;7.2;20.2
07/01/2000;17.6;18.8
08/01/2000;6.9;19
09/01/2000;12.6;20.1
10/01/2000;11;19.7
11/01/2000;0;20.1
12/01/2000;0;21.5
13/01/2000;5.6;20.7
14/01/2000;0;22.4
15/01/2000;0.6;21.3
16/01/2000;0.3;20.5
17/01/2000;16;20.5
18/01/2000;5.8;22
19/01/2000;7.4;19.7
20/01/2000;9.2;18.3
21/01/2000;0;17.8
22/01/2000;0;18.9
23/01/2000;0;18
24/01/2000;0;18.4
25/01/2000;0;20.8
26/01/2000;39.4;17.9
27/01/2000;40.2;17.1
28/01/2000;0;15
29/01/2000;0;15.3
30/01/2000;0;16.7
31/01/2000;0;19
01/02/2000;16.5;20.4
02/02/2000;3.6;19.9
03/02/2000;0;20.2
04/02/2000;0;21.5
05/02/2000;52.7;20
06/02/2000;5;19.5
07/02/2000;0;17.7
08/02/2000;0;18.5
09/02/2000;0;19.7
10/02/2000;18.3;19.7
11/02/2000;16.8;20.1
12/02/2000;8.7;19.3
13/02/2000;11.6;19.9
14/02/2000;19.5;19.3
15/02/2000;0;20.3
16/02/2000;0;18.5
17/02/2000;36.3;16.2
18/02/2000;10.1;15.3
19/02/2000;0;15.4
20/02/2000;0;17
21/02/2000;0;17.4
22/02/2000;0;19.2
23/02/2000;36.4;19.4
24/02/2000;2.2;20.4
25/02/2000;1;19.7
26/02/2000;0;20.2
27/02/2000;0;21
28/02/2000;1.7;20.2
29/02/2000;6.2;20.4
01/03/2000;2.8;20
02/03/2000;9.7;19.7
03/03/2000;0;19.2
04/03/2000;4.2;19.1
05/03/2000;0.2;20.7
06/03/2000;0;21.7
07/03/2000;0.5;18.7
08/03/2000;20.6;16.4
09/03/2000;0;14.7
10/03/2000;0;16.4
11/03/2000;0;17.5
12/03/2000;0;17.3
13/03/2000;0;14.7
14/03/2000;0;15.4
15/03/2000;0;17.4
16/03/2000;0;19.4
17/03/2000;15.9;20
18/03/2000;5.8;19.5
19/03/2000;16.8;18.4
20/03/2000;0;17.2
21/03/2000;0.7;18.2
22/03/2000;4;19
23/03/2000;1.6;19
24/03/2000;0;19
25/03/2000;0;19.5
26/03/2000;0;18.8
27/03/2000;2.9;18.9
28/03/2000;0;19.5
29/03/2000;8.1;18.3
30/03/2000;3.9;17.8
31/03/2000;2.4;18.4
01/04/2000;4;18.3
02/04/2000;0.1;17.9
03/04/2000;0.8;14.7
04/04/2000;0.1;15.7
05/04/2000;0;15.7
06/04/2000;0;16.7
07/04/2000;0;18.2
08/04/2000;0;18.4
09/04/2000;0;17.7
10/04/2000;0;18.6
11/04/2000;0;18.3
12/04/2000;0;16.9
13/04/2000;0;18.1
14/04/2000;0;19.5
15/04/2000;0.8;18.7
16/04/2000;0;16.3
17/04/2000;0;16.4
18/04/2000;0;18.2
19/04/2000;0;19.7
20/04/2000;0.5;17.7
21/04/2000;0;14.7
22/04/2000;0;14.7
23/04/2000;0;15.4
24/04/2000;0;14
25/04/2000;0;14
26/04/2000;0;12.5
27/04/2000;0;13.7
28/04/2000;0;14.7
29/04/2000;0;15.1
30/04/2000;0;16.3
01/05/2000;0;17.7
02/05/2000;0;19.7
03/05/2000;1.5;18.5
04/05/2000;0;16.2
05/05/2000;0;18.9
06/05/2000;0;19.7
07/05/2000;4.4;15.9
08/05/2000;0;14.5
09/05/2000;1;15.3
10/05/2000;0;11.8
11/05/2000;0;12.1
12/05/2000;0;11.9
13/05/2000;0;12.4
14/05/2000;0;12.5
15/05/2000;0;12.9
16/05/2000;0;15.2
17/05/2000;0;17.9
18/05/2000;0;12.3
19/05/2000;1.8;12.3
20/05/2000;0.6;13.1
21/05/2000;0;12.7
22/05/2000;0;11.5
23/05/2000;0;12.6
24/05/2000;0;12.7
25/05/2000;0;12
26/05/2000;0;14.3
27/05/2000;0;14.7
28/05/2000;0;11.9
29/05/2000;0;8.7
30/05/2000;0;8.3
31/05/2000;0;11.9
01/06/2000;0.2;13
02/06/2000;0;12.4
03/06/2000;0;12.7
04/06/2000;0;14.5
05/06/2000;0;12.8
06/06/2000;0;12.5
07/06/2000;0;12.9
08/06/2000;0;14.7
09/06/2000;0;14.7
10/06/2000;0;15.7
11/06/2000;0;14.5
12/06/2000;0;15.3
13/06/2000;0;13.9
14/06/2000;0;13.2
15/06/2000;0;13.2
16/06/2000;0;13.7
17/06/2000;0;14.7
18/06/2000;0;15.1
19/06/2000;0;14.4
20/06/2000;0;16.9
21/06/2000;11.4;12.2
22/06/2000;0.6;6.2
23/06/2000;0;6.7
24/06/2000;0;9.8
25/06/2000;0;16.1
26/06/2000;0;16.7
27/06/2000;0;16.7
28/06/2000;0;15.9
29/06/2000;0;17.2
30/06/2000;0;15.7
01/07/2000;0;12.4
02/07/2000;0;11.6
03/07/2000;0;14.4
04/07/2000;0;12.1
05/07/2000;0;13.3
06/07/2000;0;14.2
07/07/2000;0;13.3
08/07/2000;0;13.8
09/07/2000;0;15
10/07/2000;0;15.7
11/07/2000;0;20.3
12/07/2000;0;13.8
13/07/2000;0;10.3
14/07/2000;0;9
15/07/2000;0;9.5
16/07/2000;37.5;10.1
17/07/2000;0;4.4
18/07/2000;0;4.1
19/07/2000;0;4.3
20/07/2000;0;8.2
21/07/2000;0;4.5
22/07/2000;0;12.5
23/07/2000;20.6;9.7
24/07/2000;7.5;8.7
25/07/2000;0;9.7
26/07/2000;0;9.7
27/07/2000;0;11.3
28/07/2000;0;10.9
29/07/2000;0;9.7
30/07/2000;0;10.1
31/07/2000;0;12.1
01/08/2000;0;12.4
02/08/2000;0;13.3
03/08/2000;0;14.2
04/08/2000;0.4;9.1
05/08/2000;0;7.4
06/08/2000;0;10.1
07/08/2000;3;12.9
08/08/2000;0.6;14.1
09/08/2000;0;15.4
10/08/2000;1;12.7
11/08/2000;2.3;8.6
12/08/2000;0;6.1
13/08/2000;0;6.7
14/08/2000;0;8.8
15/08/2000;0;10.4
16/08/2000;11.8;11
17/08/2000;0;11.4
18/08/2000;2.1;13.4
19/08/2000;0;12.9
20/08/2000;0;13.1
21/08/2000;0;14.3
22/08/2000;0;14.7
23/08/2000;0;15.1
24/08/2000;0;14.8
25/08/2000;0;15.7
26/08/2000;0;17.3
27/08/2000;0;14.3
28/08/2000;45.9;12.9
29/08/2000;19.2;12.3
30/08/2000;0;11.4
31/08/2000;0;13.5
01/09/2000;0.6;12.7
02/09/2000;39.4;12.1
03/09/2000;11.2;11.2
04/09/2000;1.1;10.7
05/09/2000;0;11.5
06/09/2000;0;12.9
07/09/2000;0;13.7
08/09/2000;0;13.3
09/09/2000;0;15.2
10/09/2000;0;14.9
11/09/2000;0;18.2
12/09/2000;0.3;17.2
13/09/2000;32.6;16.6
14/09/2000;12.1;17.3
15/09/2000;0;18.5
16/09/2000;4;14.6
17/09/2000;0.1;14.2
18/09/2000;6.7;14.7
19/09/2000;0;16.4
20/09/2000;0;16.9
21/09/2000;0;19.1
22/09/2000;0;15.7
23/09/2000;0;14.7
24/09/2000;0;16.3
25/09/2000;3;10.8
26/09/2000;0;9.5
27/09/2000;0;10.5
28/09/2000;0;13.4
29/09/2000;0;14.7
30/09/2000;0;14.1
01/10/2000;0;12.7
02/10/2000;0;14.3
03/10/2000;0;18
04/10/2000;0;18.7
05/10/2000;25.8;18.1
06/10/2000;1.1;16.2
07/10/2000;0;14.7
08/10/2000;0;15.7
09/10/2000;0;16.1
10/10/2000;0;18.1
11/10/2000;5;17.7
12/10/2000;0;19.1
13/10/2000;0;18.9
14/10/2000;0;18.5
15/10/2000;0;18.3
16/10/2000;0;19
17/10/2000;0;19.2
18/10/2000;1;20.2
19/10/2000;0;20
20/10/2000;2.2;20.1
21/10/2000;0;18.5
22/10/2000;0;17.7
23/10/2000;0;19
24/10/2000;0.9;19.7
25/10/2000;14.7;19
26/10/2000;2.7;18.4
27/10/2000;4.8;18.7
28/10/2000;0;16.9
29/10/2000;0.8;15.1
30/10/2000;0;14.3
31/10/2000;0;17.5
01/11/2000;0;16.9
02/11/2000;0;17.7
03/11/2000;0;18.9
04/11/2000;0;18.6
05/11/2000;0;18.9
06/11/2000;0;19.3
07/11/2000;0;18.1
08/11/2000;0;15.7
09/11/2000;0;15.7
10/11/2000;0;18.1
11/11/2000;0;18.1
12/11/2000;0;18.5
13/11/2000;3.1;19.7
14/11/2000;31.6;15.9
15/11/2000;4.5;15.2
16/11/2000;0;16.1
17/11/2000;0;17.2
18/11/2000;39;15.5
19/11/2000;19.4;15.8
20/11/2000;0;19.2
21/11/2000;0;18.2
22/11/2000;25.9;18.2
23/11/2000;0;18.3
24/11/2000;0;20
25/11/2000;17.2;18.7
26/11/2000;28;18.7
27/11/2000;0;17.1
28/11/2000;0;18.5
29/11/2000;0.3;19.7
30/11/2000;17;19.1
01/12/2000;0.1;15.5
02/12/2000;0;15.1
03/12/2000;0;17.5
04/12/2000;0.3;20.3
05/12/2000;13.2;19.1
06/12/2000;0;17.4
07/12/2000;0;15.9
08/12/2000;0;18.4
09/12/2000;0;19.3
10/12/2000;9.5;18.3
11/12/2000;8.4;17.2
12/12/2000;0;18.7
13/12/2000;0;19.7
14/12/2000;32.3;19.7
15/12/2000;0;21.7
16/12/2000;8.2;21.2
17/12/2000;62.8;14.3
18/12/2000;8.3;14.3
19/12/2000;0.2;14.7
20/12/2000;0;15.3
21/12/2000;0;18.3
22/12/2000;0;19.3
23/12/2000;0;21.7
24/12/2000;0;20.7
25/12/2000;29.7;19.7
26/12/2000;2.1;18.7
27/12/2000;30.2;18.7
28/12/2000;0.2;20.5
29/12/2000;0;20.9
30/12/2000;13.2;20.3
31/12/2000;31;18.7
01/01/2001;0.1;17.5
02/01/2001;0;17.5
03/01/2001;0;18.3
04/01/2001;0;19.6
05/01/2001;0.6;19.1
06/01/2001;0;21.9
07/01/2001;0;21.7
08/01/2001;0;21
09/01/2001;9.4;21
10/01/2001;0.2;20.6
11/01/2001;0;20.7
12/01/2001;0;20.1
13/01/2001;1.8;18.6
14/01/2001;11.3;16.3
15/01/2001;60.8;16.1
16/01/2001;2.9;19.7
17/01/2001;0;20.8
18/01/2001;3.9;19.9
19/01/2001;0.2;21.1
20/01/2001;0;20.1
21/01/2001;0;19.5
22/01/2001;4.3;19.5
23/01/2001;0;20.3
24/01/2001;9.1;20.3
25/01/2001;4.2;19.4
26/01/2001;4.6;20.8
27/01/2001;0;21.5
28/01/2001;17.6;20.7
29/01/2001;13.2;19.7
30/01/2001;0;21.5
31/01/2001;0;21.4
01/02/2001;18;20.2
02/02/2001;0;22
03/02/2001;0;23
04/02/2001;0;22.5
05/02/2001;3;20.3
06/02/2001;66;20.3
07/02/2001;21.6;21
08/02/2001;0;21.7
09/02/2001;0;21.3
10/02/2001;7.4;20.5
11/02/2001;14.3;20.4
12/02/2001;4.4;20.9
13/02/2001;8.9;20.5
14/02/2001;38.1;19.5
15/02/2001;4;20.2
16/02/2001;14.8;20.2
17/02/2001;0;20.4
18/02/2001;3;20
19/02/2001;0;21.3
20/02/2001;0.4;22.2
21/02/2001;0.7;19.7
22/02/2001;0;20.4
23/02/2001;0;14.7
24/02/2001;50.1;14.7
25/02/2001;30.6;18.7
26/02/2001;4.8;19.9
27/02/2001;0;18.9
28/02/2001;0;19.1
01/03/2001;0;18.9
02/03/2001;0;16.1
03/03/2001;48.6;16.1
04/03/2001;0;17.7
05/03/2001;0;19.4
06/03/2001;0;18.2
07/03/2001;0;22.2
08/03/2001;13;20.4
09/03/2001;11;20.1
10/03/2001;1.8;20.7
11/03/2001;1.6;19.5
12/03/2001;0;19.4
13/03/2001;0;20.1
14/03/2001;0;20.7
15/03/2001;0;20.9
16/03/2001;4.5;20.9
17/03/2001;0;22.4
18/03/2001;3.4;20.5
19/03/2001;0;20.3
20/03/2001;0.2;19.7
21/03/2001;13.5;18.9
22/03/2001;0;18.7
23/03/2001;0;21.2
24/03/2001;0;21.3
25/03/2001;2;19.7
26/03/2001;0.7;19.7
27/03/2001;10.9;18.8
28/03/2001;0.5;19.3
29/03/2001;16;17.5
30/03/2001;10.8;17.3
31/03/2001;0;18.3
01/04/2001;5;18.1
02/04/2001;27.6;18.1
03/04/2001;0.3;18.7
04/04/2001;0;17
05/04/2001;0;19.2
06/04/2001;0;20.3
07/04/2001;0;20.8
08/04/2001;0;19.8
09/04/2001;0;20
10/04/2001;0;20.4
11/04/2001;0;21.2
12/04/2001;0;18.7
13/04/2001;0;16.5
14/04/2001;0;15.5
15/04/2001;0;17.3
16/04/2001;0;16.4
17/04/2001;0;16.2
18/04/2001;0;17.3
19/04/2001;0;16.1
20/04/2001;0;17.7
21/04/2001;0;18.8
22/04/2001;0;20.2
23/04/2001;0;19.4
24/04/2001;0;21
25/04/2001;0;20.1
26/04/2001;0;19
27/04/2001;0;17.9
28/04/2001;0;18.2
29/04/2001;0;18.4
30/04/2001;0;18.7
01/05/2001;0;17.7
02/05/2001;0;19
03/05/2001;0;19.9
04/05/2001;0;19.8
05/05/2001;3.9;14.4
06/05/2001;0;12.2
07/05/2001;1;13.1
08/05/2001;0.5;13
09/05/2001;0;12.4
10/05/2001;0;15.2
11/05/2001;0;16.2
12/05/2001;6.7;15.2
13/05/2001;47.2;14.5
14/05/2001;1.5;12.7
15/05/2001;0;11.7
16/05/2001;2.4;13.1
17/05/2001;15.2;13.1
18/05/2001;0.4;9.4
19/05/2001;0.1;10.9
20/05/2001;0;12.7
21/05/2001;0;13.7
22/05/2001;0;14.2
23/05/2001;0;14.7
24/05/2001;0;15.6
25/05/2001;0;15.3
26/05/2001;0;16.1
27/05/2001;0;17.2
28/05/2001;7.2;16.9
29/05/2001;0;18.1
30/05/2001;0;16.3
31/05/2001;0;16.9
01/06/2001;0;16.7
02/06/2001;0;16.6
03/06/2001;0;16.1
04/06/2001;0;16.4
05/06/2001;0;17
06/06/2001;0;18.1
07/06/2001;0;17.1
08/06/2001;0;17.1
09/06/2001;0;17.5
10/06/2001;3;15.9
11/06/2001;0;16
12/06/2001;0;15.2
13/06/2001;0;14.3
14/06/2001;0;12.6
15/06/2001;0;14.9
16/06/2001;0;16.7
17/06/2001;0;18
18/06/2001;2.1;11.5
19/06/2001;3.3;11.4
20/06/2001;0;10.7
21/06/2001;0;6.4
22/06/2001;0;8.4
23/06/2001;0;10.7
24/06/2001;0;11.7
25/06/2001;0;14.7
26/06/2001;0;12.7
27/06/2001;16;7.6
28/06/2001;0.1;8.4
29/06/2001;0;10.9
30/06/2001;0;11.9
01/07/2001;0;10.3
02/07/2001;0;10.4
03/07/2001;0;12.7
04/07/2001;0;12.7
05/07/2001;0;13.3
06/07/2001;0;15.7
07/07/2001;0;14.4
08/07/2001;0;13.1
09/07/2001;0;14.2
10/07/2001;0;14
11/07/2001;0;15.3
12/07/2001;4.5;11.4
13/07/2001;0.4;10
14/07/2001;0;10.2
15/07/2001;0;10.5
16/07/2001;0;13
17/07/2001;0;14.1
18/07/2001;0;16.2
19/07/2001;0;15.9
20/07/2001;0;16.1
21/07/2001;0;18.4
22/07/2001;2.3;13.3
23/07/2001;0.1;11.1
24/07/2001;0.2;12.1
25/07/2001;2.2;13.7
26/07/2001;0;15.3
27/07/2001;8.5;11.5
28/07/2001;22.6;7.2
29/07/2001;0.2;5.6
30/07/2001;0;8.4
31/07/2001;0;11.7
01/08/2001;0;13.4
02/08/2001;0;12.5
03/08/2001;0;12.4
04/08/2001;0;13.9
05/08/2001;0;12.3
06/08/2001;0;12.7
07/08/2001;0;11.7
08/08/2001;0;12.2
09/08/2001;0;12.2
10/08/2001;0;11.8
11/08/2001;0;13.4
12/08/2001;0;13.1
13/08/2001;0;13.1
14/08/2001;0;12.7
15/08/2001;0;12.7
16/08/2001;0;13.8
17/08/2001;0;13.5
18/08/2001;0;13.3
19/08/2001;0;15.2
20/08/2001;0;15.7
21/08/2001;0;15.3
22/08/2001;12;14
23/08/2001;13.3;13.3
24/08/2001;0.9;14.5
25/08/2001;4;15.5
26/08/2001;0;17
27/08/2001;0;16.9
28/08/2001;0;17
29/08/2001;0;17.3
30/08/2001;2.6;16.4
31/08/2001;0;17.5
01/09/2001;0;17.5
02/09/2001;0;17.5
03/09/2001;0;17.7
04/09/2001;0;18.3
05/09/2001;0;17.4
06/09/2001;0;15.7
07/09/2001;0.9;14.5
08/09/2001;0;12.7
09/09/2001;0;16
10/09/2001;0;14.7
11/09/2001;0;14.2
12/09/2001;0.1;11.3
13/09/2001;0;12.7
14/09/2001;8;15.9
15/09/2001;38;15.7
16/09/2001;0;10
17/09/2001;0;8.5
18/09/2001;0.3;10.7
19/09/2001;0;10.3
20/09/2001;0;11.8
21/09/2001;0.4;13.5
22/09/2001;0.4;15.4
23/09/2001;2.9;14.7
24/09/2001;23.2;14.7
25/09/2001;0;16.7
26/09/2001;9.2;18.2
27/09/2001;0;16.1
28/09/2001;0;16
29/09/2001;0.3;15.1
30/09/2001;4.8;15
01/10/2001;0;16.7
02/10/2001;70.2;16.7
03/10/2001;0;15.1
04/10/2001;0;16.1
05/10/2001;0;16.5
06/10/2001;0;14.3
07/10/2001;0;14.7
08/10/2001;7.2;15.4
09/10/2001;15.2;15.6
10/10/2001;0;16.3
11/10/2001;0;18.3
12/10/2001;9.6;16
13/10/2001;0;17.1
14/10/2001;0;14.9
15/10/2001;0;14.7
16/10/2001;0;15.7
17/10/2001;0;15.5
18/10/2001;4.3;16.6
19/10/2001;3.3;15.7
20/10/2001;66;16.1
21/10/2001;0;14.9
22/10/2001;23;16.6
23/10/2001;5.5;16.8
24/10/2001;0;14.4
25/10/2001;0;16
26/10/2001;0;14.2
27/10/2001;0;13.2
28/10/2001;0;15.1
29/10/2001;0;17.3
30/10/2001;0;18.5
31/10/2001;0;19.7
01/11/2001;0;17.1
02/11/2001;0;15.5
03/11/2001;0;14.3
04/11/2001;0.6;14.3
05/11/2001;0.1;14.9
06/11/2001;0;16.7
07/11/2001;0;16.8
08/11/2001;0;18.8
09/11/2001;0;18.7
10/11/2001;0;18.8
11/11/2001;1;18.3
12/11/2001;24.5;18.5
13/11/2001;4;17.4
14/11/2001;6.4;17.6
15/11/2001;9.9;19
16/11/2001;19.1;18.8
17/11/2001;0.6;18.4
18/11/2001;0;17
19/11/2001;0;18.3
20/11/2001;0;18.9
21/11/2001;0;19.3
22/11/2001;0;19.2
23/11/2001;35.7;18.4
24/11/2001;0.1;19.3
25/11/2001;16.7;19.3
26/11/2001;0;19.3
27/11/2001;0;18.7
28/11/2001;0;19.3
29/11/2001;66.5;18.6
30/11/2001;0;19.2
01/12/2001;15.9;17.7
02/12/2001;0;15.5
03/12/2001;0;14.7
04/12/2001;0;16.3
05/12/2001;0;16.9
06/12/2001;1;21.1
07/12/2001;0.4;20.7
08/12/2001;2.5;20.3
09/12/2001;23.6;18.5
10/12/2001;23.4;17.3
11/12/2001;12.9;17.3
12/12/2001;0;17.3
13/12/2001;5.8;18.9
14/12/2001;7.9;19.1
15/12/2001;15;18.6
16/12/2001;9.6;18.3
17/12/2001;11;17.5
18/12/2001;0;20.1
19/12/2001;0;20.3
20/12/2001;0;20.7
21/12/2001;0;20.7
22/12/2001;4.4;20.4
23/12/2001;16.5;16.8
24/12/2001;15;15.2
25/12/2001;0;15.7
26/12/2001;0;16.4
27/12/2001;0;17.5
28/12/2001;0;19.6
29/12/2001;3.4;18.7
30/12/2001;16.7;17.7
31/12/2001;2;18.5
01/01/2002;0;19.5
02/01/2002;2.2;19.1
03/01/2002;0;20.1
04/01/2002;0.7;19.1
05/01/2002;0;19.1
06/01/2002;0;20.4
07/01/2002;0.1;20.5
08/01/2002;0.4;18
09/01/2002;30.5;17.1
10/01/2002;15;17.5
11/01/2002;0;19.1
12/01/2002;10.9;19
13/01/2002;33.5;18.8
14/01/2002;30.2;19.4
15/01/2002;27.1;19.3
16/01/2002;18.5;15.4
17/01/2002;1;14.6
18/01/2002;0;15.9
19/01/2002;0;16
20/01/2002;21;18
21/01/2002;1;19.9
22/01/2002;0;22.2
23/01/2002;0.2;21.5
24/01/2002;0;21.2
25/01/2002;23.4;19.1
26/01/2002;22.7;19
27/01/2002;0;22.1
28/01/2002;0;20
29/01/2002;44.2;20.4
30/01/2002;0;21.1
31/01/2002;2.2;22
01/02/2002;4.2;22.3
02/02/2002;0.6;20.1
03/02/2002;3.5;17.3
04/02/2002;0;16.3
05/02/2002;0;15.8
06/02/2002;0;17.3
07/02/2002;0.8;18.7
08/02/2002;19.9;19.5
09/02/2002;16.7;19.3
10/02/2002;5.1;17.7
11/02/2002;0;16.9
12/02/2002;27.2;16.9
13/02/2002;4.4;20
14/02/2002;5;19.1
15/02/2002;0.3;18.7
16/02/2002;31.7;17.9
17/02/2002;1;19.4
18/02/2002;0.4;17.2
19/02/2002;0;17.4
20/02/2002;0;18.7
21/02/2002;2;20.1
22/02/2002;19.7;20.5
23/02/2002;12.8;20.6
24/02/2002;16.2;19
25/02/2002;0.2;18
26/02/2002;0;17.3
27/02/2002;0;20.1
28/02/2002;0.8;18.7
01/03/2002;18.2;17.9
02/03/2002;0;19.5
03/03/2002;8.8;19.4
04/03/2002;15.8;17.9
05/03/2002;0;19.3
06/03/2002;0;21.7
07/03/2002;0;18.1
08/03/2002;54.2;18
09/03/2002;42;20
10/03/2002;0;20.4
11/03/2002;0;20.5
12/03/2002;3;22.2
13/03/2002;0;21.7
14/03/2002;3.6;20.8
15/03/2002;0;18.2
16/03/2002;23.7;18.2
17/03/2002;0.1;20.1
18/03/2002;9.1;21
19/03/2002;17.1;20.3
20/03/2002;0;23.1
21/03/2002;35;19.1
22/03/2002;2;17.1
23/03/2002;0;17.5
24/03/2002;4.7;19.7
25/03/2002;65.2;19.9
26/03/2002;0;20.3
27/03/2002;0;19.9
28/03/2002;24;18.5
29/03/2002;0;21.4
30/03/2002;0;21.1
31/03/2002;0;20
01/04/2002;0;20.7
02/04/2002;0;22.4
03/04/2002;0;20.1
04/04/2002;13.8;19.4
05/04/2002;0;19.3
06/04/2002;0;16.9
07/04/2002;24.5;17.1
08/04/2002;15.2;17.7
09/04/2002;0;16.9
10/04/2002;0;17.7
11/04/2002;0;17.9
12/04/2002;0;19.6
13/04/2002;0;21.3
14/04/2002;0;19.9
15/04/2002;0;19.2
16/04/2002;0;18.1
17/04/2002;0;19.3
18/04/2002;0;20.4
19/04/2002;0;20.5
20/04/2002;0;18
21/04/2002;0;20.7
22/04/2002;0;20.1
23/04/2002;0;19
24/04/2002;0;18.6
25/04/2002;0;19.5
26/04/2002;0;18.7
27/04/2002;0;19
28/04/2002;0;17.7
29/04/2002;0;18.3
30/04/2002;0;20.8
01/05/2002;1.4;18.5
02/05/2002;0;18.8
03/05/2002;8.2;17.3
04/05/2002;0;19.3
05/05/2002;0;18
06/05/2002;14.9;18.3
07/05/2002;0.8;18.3
08/05/2002;0;19.2
09/05/2002;0.1;18.2
10/05/2002;0;16.7
11/05/2002;0;18.1
12/05/2002;0;18.4
13/05/2002;0;17
14/05/2002;0;16.7
15/05/2002;0;16.4
16/05/2002;0;18.3
17/05/2002;0.3;17.1
18/05/2002;0;16.9
19/05/2002;27.1;15.5
20/05/2002;8.9;14.5
21/05/2002;20.5;16
22/05/2002;10;14.7
23/05/2002;0.2;14.1
24/05/2002;0.6;13
25/05/2002;0;12.5
26/05/2002;0;11.7
27/05/2002;0;11.9
28/05/2002;0;12.7
29/05/2002;0;13.6
30/05/2002;0;13.9
31/05/2002;0;15.3
01/06/2002;0;16.3
02/06/2002;0;17.2
03/06/2002;0;15.3
04/06/2002;0;15.4
05/06/2002;0;15.1
06/06/2002;0;14.8
07/06/2002;0;15.3
08/06/2002;0;16.5
09/06/2002;0;17
10/06/2002;0;18.7
11/06/2002;0;18.4
12/06/2002;0;17.4
13/06/2002;0;16.3
14/06/2002;0;16.7
15/06/2002;0;15.7
16/06/2002;0.3;15.9
17/06/2002;0;17
18/06/2002;0;15.9
19/06/2002;0;15.3
20/06/2002;0;16.9
21/06/2002;0;15.7
22/06/2002;0;15.1
23/06/2002;1;12.8
24/06/2002;0;14.1
25/06/2002;0;13.3
26/06/2002;0;13.2
27/06/2002;0;13.7
28/06/2002;0;14.6
29/06/2002;0;13.7
30/06/2002;0;13.6
01/07/2002;0;14.7
02/07/2002;0;15.8
03/07/2002;0;15.1
04/07/2002;0;13.9
05/07/2002;0;14.8
06/07/2002;0;14.6
07/07/2002;0;14.7
08/07/2002;1.2;9.3
09/07/2002;0;9.8
10/07/2002;0;11.9
11/07/2002;0;13.2
12/07/2002;10;12.7
13/07/2002;11.7;11.5
14/07/2002;0;8.8
15/07/2002;0;8.9
16/07/2002;0;11.7
17/07/2002;0;10.7
18/07/2002;0;12.3
19/07/2002;0;11.1
20/07/2002;0;12.4
21/07/2002;0;14.2
22/07/2002;0;16
23/07/2002;0;16.3
24/07/2002;0;12.3
25/07/2002;0;13.2
26/07/2002;0;13.9
27/07/2002;0;12.6
28/07/2002;0;11.4
29/07/2002;0;8.9
30/07/2002;0;10.7
31/07/2002;0;13.9
01/08/2002;2.1;15.3
02/08/2002;25.4;14.4
03/08/2002;12.3;14.9
04/08/2002;0;14.9
05/08/2002;0;16.4
06/08/2002;0;15.5
07/08/2002;4;14.9
08/08/2002;0;16.7
09/08/2002;0.5;18.3
10/08/2002;0;14.3
11/08/2002;0;14.1
12/08/2002;0;15.7
13/08/2002;0;17.7
14/08/2002;0;17.3
15/08/2002;0;17.3
16/08/2002;0;17.1
17/08/2002;0;15.4
18/08/2002;0;15.9
19/08/2002;0;15.1
20/08/2002;0;15.7
21/08/2002;0;16.4
22/08/2002;0;17.2
23/08/2002;0;15.9
24/08/2002;0;17
25/08/2002;0;15.5
26/08/2002;0;14.8
27/08/2002;0;14.7
28/08/2002;0;14.7
29/08/2002;0;16.9
30/08/2002;2.1;16.2
31/08/2002;0;15
01/09/2002;11.8;12.3
02/09/2002;0;8.6
03/09/2002;0;5.7
04/09/2002;0;10
05/09/2002;0;12.7
06/09/2002;0;15.3
07/09/2002;9.2;11.4
08/09/2002;0.1;11.2
09/09/2002;0;13.1
10/09/2002;0;14.9
11/09/2002;0;16.6
12/09/2002;0;15.5
13/09/2002;0;19.7
14/09/2002;0.6;14.9
15/09/2002;0.9;14.6
16/09/2002;0;15.7
17/09/2002;0;15.1
18/09/2002;0.3;17
19/09/2002;0;17.1
20/09/2002;0.7;17.7
21/09/2002;29.5;10.9
22/09/2002;0.3;10.7
23/09/2002;0;11.7
24/09/2002;0.6;12.4
25/09/2002;0.8;11.9
26/09/2002;0;12.3
27/09/2002;0;14.5
28/09/2002;0;15.7
29/09/2002;0;15.4
30/09/2002;0;17.7
01/10/2002;1.6;16.7
02/10/2002;6.1;15.6
03/10/2002;0;14.9
04/10/2002;0.5;14.7
05/10/2002;0;16.8
06/10/2002;0;17.5
07/10/2002;1.2;21.2
08/10/2002;0;22.2
09/10/2002;0;19.7
10/10/2002;0;18.9
11/10/2002;0;20.7
12/10/2002;0;20.3
13/10/2002;0;16.1
14/10/2002;0;18.9
15/10/2002;0;20.6
16/10/2002;0;19
17/10/2002;0;19.7
18/10/2002;3.8;18.4
19/10/2002;0;18.3
20/10/2002;5.4;19.5
21/10/2002;0;19.2
22/10/2002;27.2;15.5
23/10/2002;0;14
24/10/2002;0;15
25/10/2002;0;17.7
26/10/2002;35.7;17.7
27/10/2002;0;17.7
28/10/2002;0;18.7
29/10/2002;0;18.9
30/10/2002;33.5;18.5
31/10/2002;9.9;17.3
01/11/2002;0;18
02/11/2002;0;17.1
03/11/2002;0;15.9
04/11/2002;0;18.4
05/11/2002;12.2;15.2
06/11/2002;3.4;13.3
07/11/2002;0;12.5
08/11/2002;0;12.8
09/11/2002;0;13.6
10/11/2002;0;19.7
11/11/2002;6.1;19.7
12/11/2002;14.3;16.7
13/11/2002;5.6;15.5
14/11/2002;6.9;14.5
15/11/2002;2.9;18.9
16/11/2002;0;18.7
17/11/2002;1.5;17.7
18/11/2002;0;20.7
19/11/2002;4.4;19.6
20/11/2002;0;19.2
21/11/2002;0;20.9
22/11/2002;0;19.8
23/11/2002;5;19.6
24/11/2002;0;18.2
25/11/2002;91.1;18.5
26/11/2002;13;19.9
27/11/2002;0.1;21.7
28/11/2002;27.6;20.5
29/11/2002;24.8;20.3
30/11/2002;7.6;20.7
01/12/2002;0;21.7
02/12/2002;3.3;20.5
03/12/2002;4.9;20.3
04/12/2002;0;20.3
05/12/2002;0;21.3
06/12/2002;39.7;19.3
07/12/2002;2;20.1
08/12/2002;7.2;19.7
09/12/2002;14.4;17.7
10/12/2002;0;17.3
11/12/2002;0;18.2
12/12/2002;0.8;19.3
13/12/2002;0;19.3
14/12/2002;13.5;18.3
15/12/2002;36;18.3
16/12/2002;52;17.8
17/12/2002;1.1;19.7
18/12/2002;36.8;16.9
19/12/2002;0;16.7
20/12/2002;0;21.7
21/12/2002;16.4;20.3
22/12/2002;1.2;20.8
23/12/2002;0;20.5
24/12/2002;0;23
25/12/2002;4.2;16
26/12/2002;1.8;17.9
27/12/2002;0;16.8
28/12/2002;0;15.9
29/12/2002;0;19.1
30/12/2002;0;19.5
31/12/2002;0;21.7
01/01/2003;26.2;21.9
02/01/2003;2.7;21.4
03/01/2003;2.1;21
04/01/2003;43.6;20.6
05/01/2003;15;20.7
06/01/2003;2.8;21.3
07/01/2003;0;17.7
08/01/2003;0;18.1
09/01/2003;0;20
10/01/2003;0;17.2
11/01/2003;34.8;17.3
12/01/2003;3.1;19
13/01/2003;14;17.9
14/01/2003;2.1;18.4
15/01/2003;0;18.8
16/01/2003;0;19.8
17/01/2003;8.6;19.1
18/01/2003;4.2;19.5
19/01/2003;0.2;20.9
20/01/2003;0;19.7
21/01/2003;0;19.7
22/01/2003;29.3;19.4
23/01/2003;2.8;21.1
24/01/2003;24;17.5
25/01/2003;25.7;17.2
26/01/2003;1.6;18.4
27/01/2003;2.3;19.1
28/01/2003;50.3;18.9
29/01/2003;18.2;18.2
30/01/2003;0.1;18.6
31/01/2003;3.5;20.1
01/02/2003;8.6;19.1
02/02/2003;6.5;19.7
03/02/2003;0;21.1
04/02/2003;0;22.3
05/02/2003;0;22.5
06/02/2003;0;22.2
07/02/2003;0;21.9
08/02/2003;0;22.4
09/02/2003;13;22.4
10/02/2003;0;23
11/02/2003;0;23.5
12/02/2003;0;23.3
13/02/2003;5;20.4
14/02/2003;20;19.9
15/02/2003;2.5;19.8
16/02/2003;0.5;20.2
17/02/2003;12.8;18.5
18/02/2003;34.6;18.4
19/02/2003;0;21.4
20/02/2003;4.6;21.1
21/02/2003;1.2;21.9
22/02/2003;0.1;21.6
23/02/2003;0;21.6
24/02/2003;0;20.7
25/02/2003;0;21.4
26/02/2003;0;21.4
27/02/2003;0;21
28/02/2003;0;20.5
01/03/2003;0;19.8
02/03/2003;0;21.3
03/03/2003;0;21.2
04/03/2003;8;20
05/03/2003;1.3;18.4
06/03/2003;28.6;18.4
07/03/2003;0;19.2
08/03/2003;33.7;19.7
09/03/2003;6.7;19.4
10/03/2003;1.1;20.7
11/03/2003;8.5;20.6
12/03/2003;0.3;21.6
13/03/2003;2.1;21.4
14/03/2003;0.7;19.3
15/03/2003;0;20.6
16/03/2003;0;21.1
17/03/2003;3.4;18.7
18/03/2003;5.6;17.3
19/03/2003;0;18.5
20/03/2003;11.6;17.9
21/03/2003;3.6;19.5
22/03/2003;10.2;17.1
23/03/2003;0.1;16.8
24/03/2003;0;17.6
25/03/2003;0.1;17.2
26/03/2003;0.6;17
27/03/2003;0;17.1
28/03/2003;0.3;17.6
29/03/2003;0;16.7
30/03/2003;0;17.1
31/03/2003;0;18.9
01/04/2003;0;18.9
02/04/2003;0;17
03/04/2003;0;15.5
04/04/2003;0;19.2
05/04/2003;9.4;18.6
06/04/2003;0;18.4
07/04/2003;18.1;16.4
08/04/2003;0;15.7
09/04/2003;0;18.2
10/04/2003;0;20.4
11/04/2003;0.3;19.6
12/04/2003;0;15.1
13/04/2003;0;12.2
14/04/2003;0;13.7
15/04/2003;0;17.2
16/04/2003;0;16.4
17/04/2003;0;16.7
18/04/2003;0;16.5
19/04/2003;0;18
20/04/2003;15.8;17.6
21/04/2003;0;19.3
22/04/2003;2;19.1
23/04/2003;0;19.3
24/04/2003;0;17.3
25/04/2003;0;16.7
26/04/2003;0;18.7
27/04/2003;0;19.5
28/04/2003;0;18.9
29/04/2003;0;19.7
30/04/2003;0;19.7
01/05/2003;0;19
02/05/2003;0.5;16.2
03/05/2003;6.6;13.1
04/05/2003;0;13
05/05/2003;0.9;14.6
06/05/2003;7.5;15.7
07/05/2003;0;12
08/05/2003;0;9.7
09/05/2003;0;11.5